[[{"header":{"parameterUnit":"m.s-1","parameterCategory":1,"la1":30.2991,"la2":30.254,"lo1":-89.0895,"lo2":-89.0444,"dy":0.0017,"dx":0.0017,"nx":28,"ny":28,"refTime":"2024-08-28T03:00:00:Z","depth":0,"parameterNumber":2,"parameterNumberName":"U-component_of_WINDS"},"data":[0,0,0,0,0,0,0,0,0,0,0,0,0,0,0,0,0,0,0,0,0,0,0,0,0,0,0,0,0,0,0,0,0,0,0,0,0,0,0,0,0,0,0,0,0,0,0,0,0,0,0,0,0,0,0,0,0,0,-0.2578,-0.2578,0,-0.254,-0.254,-0.254,-0.2505,-0.2505,-0.2505,-0.2504,-0.2465,-0.2465,-0.2464,0,0,0,0,0,0,0,0,0,0,0,0,0,-0.2622,-0.2622,-0.2578,-0.2578,-0.2578,-0.2541,-0.254,-0.2539,-0.2506,-0.2505,-0.2505,-0.2504,-0.2466,-0.2465,-0.2464,0,0,0,0,0,0,0,0,0,0,0,0,0,-0.2596,-0.2622,-0.2579,-0.2556,-0.2554,-0.2541,-0.254,-0.2539,-0.2506,-0.2505,-0.2504,-0.2504,-0.2466,-0.2465,-0.2464,-0.247,0,0,-0.2461,-0.2461,0,0,0,0,0,0,0,0,-0.2597,-0.2594,-0.256,-0.2558,-0.2555,-0.2527,-0.2541,-0.2516,-0.2506,-0.2524,-0.2504,-0.2504,-0.2486,-0.2484,-0.2478,-0.2468,-0.2466,-0.2461,-0.246,-0.246,-0.246,0,0,0,0,0,0,0,-0.2599,-0.2596,-0.2563,-0.2559,-0.2556,-0.2548,-0.2544,-0.2536,-0.2509,-0.2522,-0.252,-0.2516,-0.2485,-0.2479,-0.2477,-0.2466,-0.2461,-0.246,-0.2459,-0.2459,-0.246,-0.2461,0,0,0,0,0,0,-0.2604,-0.2597,-0.2565,-0.2562,-0.2575,-0.2548,-0.2543,-0.2537,-0.2509,-0.2504,-0.2516,-0.2514,-0.2481,-0.2478,-0.2475,-0.2481,-0.246,-0.2459,-0.2458,-0.246,-0.2461,-0.2461,0,0,0,0,0,0,-0.2606,-0.2602,-0.2566,-0.2579,-0.2574,-0.2548,-0.2541,-0.2536,-0.253,-0.2504,-0.2499,-0.2515,-0.248,-0.2477,-0.2472,-0.248,-0.2458,-0.2458,-0.2459,-0.246,-0.2461,-0.2494,0,0,0,0,0,0,-0.2607,-0.2602,-0.2604,-0.2579,-0.2573,-0.2563,-0.2541,-0.2536,-0.2529,-0.2526,-0.2502,-0.2498,-0.248,-0.2474,-0.2471,-0.2478,-0.2457,-0.2458,-0.2459,-0.2461,-0.2492,-0.2495,-0.2499,0,0,0,0,0,-0.2609,-0.2615,-0.2605,-0.2601,-0.2575,-0.2564,-0.256,-0.254,-0.2529,-0.2531,-0.2515,-0.2498,-0.2479,-0.2473,-0.247,-0.2477,-0.2458,-0.2459,-0.246,-0.249,-0.2495,-0.2499,0,0,0,0,0,0,-0.2641,-0.2611,-0.2599,-0.2598,-0.2584,-0.2558,-0.256,-0.2545,-0.2533,-0.2531,-0.2506,-0.2501,-0.2499,-0.2487,-0.2481,-0.2482,-0.2466,-0.2467,-0.249,-0.2494,-0.2497,-0.2501,-0.2456,0,0,0,0,0,-0.2648,-0.2641,-0.2615,-0.2616,-0.261,-0.2586,-0.258,-0.2566,-0.255,-0.2544,-0.2527,-0.2513,-0.2503,-0.2498,-0.2488,-0.2489,-0.2484,-0.2493,-0.2496,-0.2499,-0.2501,-0.2502,-0.2505,-0.2466,-0.2466,-0.2466,0,0,-0.2662,-0.2645,-0.2642,-0.2622,-0.261,-0.2604,-0.2581,-0.2575,-0.2571,-0.2543,-0.2538,-0.2525,-0.2507,-0.2506,-0.2505,-0.2496,-0.251,-0.2501,-0.2504,-0.2503,-0.2504,-0.2507,-0.2511,-0.2467,-0.2467,-0.2466,0,0,-0.2685,-0.2671,-0.2671,-0.2659,-0.264,-0.2625,-0.2625,-0.2601,-0.2592,-0.2586,-0.2566,-0.256,-0.2544,-0.2533,-0.2525,-0.2545,-0.2529,-0.2542,-0.2561,-0.2562,-0.2565,-0.2568,-0.2576,-0.2579,-0.2543,-0.2543,-0.2543,0,-0.2705,-0.2695,-0.2673,-0.2669,-0.2661,-0.2635,-0.2636,-0.2625,-0.2604,-0.2599,-0.259,-0.2571,-0.2557,-0.2553,-0.2558,-0.2552,-0.2552,-0.2545,-0.2567,-0.2569,-0.2571,-0.2579,-0.2582,-0.2545,-0.2545,-0.2544,-0.2544,0,-0.2722,-0.2715,-0.2717,-0.2698,-0.2691,-0.2689,-0.2666,-0.2661,-0.2647,-0.2633,-0.2628,-0.261,-0.2597,-0.2595,-0.258,-0.2589,-0.2585,-0.2571,-0.2555,-0.2577,-0.2584,-0.2587,-0.2547,-0.2547,-0.2546,-0.2546,0,0,-0.2764,-0.2733,-0.2735,-0.2726,-0.2704,-0.2698,-0.2695,-0.2683,-0.2679,-0.2666,-0.2663,-0.2651,-0.2639,-0.263,-0.2614,-0.2615,-0.2634,-0.2602,-0.2601,-0.261,-0.2644,-0.2655,-0.2658,-0.2623,-0.2624,-0.2624,-0.2646,0,-0.2785,-0.2778,-0.2758,-0.2758,-0.2752,-0.2728,-0.2726,-0.2712,-0.2699,-0.2692,-0.2677,-0.2669,-0.2653,-0.2647,-0.2647,-0.2632,-0.264,-0.263,-0.2621,-0.2621,-0.2628,-0.2662,-0.2673,-0.2694,-0.2648,-0.2648,-0.2649,0,-0.2808,-0.2796,-0.2796,-0.2775,-0.2772,-0.277,-0.2757,-0.2751,-0.2735,-0.2725,-0.2716,-0.2698,-0.2695,-0.2679,-0.2674,-0.2667,-0.2662,-0.2654,-0.2654,-0.2654,-0.2637,-0.2663,-0.2701,-0.2704,-0.2652,-0.2652,-0.2652,0,-0.2841,-0.2825,-0.2823,-0.2816,-0.2791,-0.2791,-0.278,-0.2764,-0.2758,-0.2746,-0.2742,-0.2731,-0.2724,-0.2716,-0.2696,-0.2686,-0.2694,-0.2676,-0.2686,-0.2687,-0.2689,-0.269,-0.2728,-0.2685,-0.2685,-0.2684,-0.2684,0,-0.2866,-0.2867,-0.2838,-0.2836,-0.2837,-0.2814,-0.2815,-0.2802,-0.2788,-0.2784,-0.2762,-0.2759,-0.2733,-0.2727,-0.2712,-0.2711,-0.2707,-0.27,-0.2696,-0.2703,-0.2704,-0.27,-0.2698,-0.2685,-0.2685,-0.2685,-0.2685,0,-0.2903,-0.2883,-0.288,-0.2857,-0.2851,-0.2853,-0.2833,-0.2831,-0.2816,-0.2812,-0.281,-0.2786,-0.2778,-0.2758,-0.2744,-0.2734,-0.2737,-0.2729,-0.2743,-0.2741,-0.2752,-0.2752,-0.279,-0.2795,-0.2747,-0.2748,-0.2748,0,-0.2922,-0.2922,-0.2899,-0.2895,-0.2886,-0.288,-0.2873,-0.2851,-0.2845,-0.2828,-0.2828,-0.2819,-0.281,-0.2798,-0.278,-0.277,-0.2762,-0.2776,-0.2761,-0.2768,-0.2764,-0.2765,-0.2765,-0.278,-0.2781,-0.2781,-0.2782,0,-0.2957,-0.2947,-0.2939,-0.2928,-0.2921,-0.2911,-0.29,-0.2898,-0.2872,-0.2868,-0.2859,-0.2853,-0.2839,-0.283,-0.2817,-0.2806,-0.2791,-0.2787,-0.2789,-0.2796,-0.2805,-0.2802,-0.2754,-0.2786,-0.2786,-0.2786,-0.2785,-0.2785,-0.2986,-0.2985,-0.2969,-0.2962,-0.2951,-0.2941,-0.2939,-0.2924,-0.2917,-0.2904,-0.2891,-0.2885,-0.2869,-0.2851,-0.2841,-0.2836,-0.2827,-0.283,-0.2831,-0.2832,-0.2836,-0.2805,-0.2833,-0.2833,-0.2833,-0.2833,-0.2833,0,-0.3021,-0.3009,-0.3002,-0.2988,-0.2982,-0.2967,-0.2954,-0.295,-0.2945,-0.2932,-0.2924,-0.2915,-0.2906,-0.2888,-0.2878,-0.2877,-0.2869,-0.2875,-0.2876,-0.2874,-0.2843,-0.2843,-0.2882,-0.2882,-0.2882,-0.2882,-0.2882,-0.2882,-0.3038,-0.3037,-0.3026,-0.302,-0.3008,-0.3002,-0.2996,-0.2987,-0.2977,-0.2968,-0.2961,-0.2949,-0.2934,-0.2923,-0.2914,-0.2909,-0.2907,-0.2916,-0.2908,-0.288,-0.2876,-0.2871,-0.2871,-0.2915,-0.2915,-0.2939,-0.2939,-0.294]},{"header":{"parameterUnit":"m.s-1","parameterCategory":1,"la1":30.2991,"la2":30.254,"lo1":-89.0895,"lo2":-89.0444,"dy":0.0017,"dx":0.0017,"nx":28,"ny":28,"refTime":"2024-08-28T03:00:00:Z","depth":0,"parameterNumber":3,"parameterNumberName":"V-component_of_WINDS"},"data":[0,0,0,0,0,0,0,0,0,0,0,0,0,0,0,0,0,0,0,0,0,0,0,0,0,0,0,0,0,0,0,0,0,0,0,0,0,0,0,0,0,0,0,0,0,0,0,0,0,0,0,0,0,0,0,0,0,0,1.813,1.8129,0,1.8078,1.8077,1.8077,1.802,1.8019,1.8018,1.8017,1.7962,1.7962,1.7961,0,0,0,0,0,0,0,0,0,0,0,0,0,1.8178,1.8178,1.813,1.8129,1.8129,1.8078,1.8077,1.8077,1.802,1.8019,1.8018,1.8017,1.7962,1.7962,1.7961,0,0,0,0,0,0,0,0,0,0,0,0,0,1.8145,1.8178,1.813,1.8094,1.8091,1.8078,1.8077,1.8076,1.802,1.8019,1.8018,1.8016,1.7963,1.7962,1.7961,1.7979,0,0,1.7957,1.7957,0,0,0,0,0,0,0,0,1.8147,1.8143,1.81,1.8097,1.8093,1.8054,1.8074,1.8044,1.802,1.8047,1.8017,1.8016,1.7994,1.799,1.7983,1.7976,1.7974,1.7957,1.7957,1.7956,1.7956,0,0,0,0,0,0,0,1.8149,1.8145,1.8109,1.81,1.8095,1.808,1.8074,1.8068,1.8028,1.8044,1.804,1.8035,1.7991,1.7984,1.7981,1.7973,1.7957,1.7956,1.7956,1.7955,1.7977,1.7978,0,0,0,0,0,0,1.8157,1.8147,1.8111,1.8108,1.8117,1.808,1.8074,1.8068,1.8028,1.802,1.8036,1.8032,1.7986,1.7982,1.7979,1.7996,1.7956,1.7955,1.7955,1.7975,1.7977,1.7978,0,0,0,0,0,0,1.8159,1.8155,1.8113,1.8126,1.812,1.8081,1.8075,1.8067,1.806,1.8021,1.8014,1.8036,1.7985,1.798,1.7979,1.7993,1.7955,1.7954,1.7974,1.7976,1.7977,1.8031,0,0,0,0,0,0,1.816,1.8155,1.8162,1.8127,1.812,1.8115,1.8076,1.8067,1.8058,1.8053,1.8019,1.8012,1.7984,1.7981,1.7978,1.7991,1.7953,1.7972,1.7975,1.7977,1.8028,1.8035,1.804,0,0,0,0,0,1.8162,1.8179,1.8163,1.8159,1.8128,1.8116,1.8111,1.8079,1.806,1.8066,1.8041,1.8014,1.7993,1.7981,1.7977,1.7991,1.7971,1.7974,1.7977,1.8025,1.8033,1.804,0,0,0,0,0,0,1.8217,1.8174,1.8155,1.8162,1.8143,1.8106,1.8113,1.8089,1.8074,1.807,1.8029,1.8022,1.8025,1.8008,1.7996,1.8005,1.7978,1.798,1.8016,1.8023,1.803,1.8033,1.7952,0,0,0,0,0,1.823,1.8225,1.8187,1.8197,1.8188,1.8153,1.8146,1.8123,1.8101,1.8092,1.8067,1.8047,1.8035,1.8029,1.8016,1.8026,1.8016,1.8033,1.8039,1.8044,1.8046,1.8048,1.8054,1.7987,1.7987,1.7987,0,0,1.8256,1.8232,1.8231,1.8207,1.819,1.8184,1.8146,1.8142,1.8137,1.8092,1.8088,1.8069,1.8044,1.8047,1.8048,1.8033,1.8063,1.8048,1.8052,1.8051,1.8051,1.8058,1.8063,1.7989,1.7988,1.7988,0,0,1.8301,1.8284,1.8289,1.8272,1.8246,1.8222,1.8224,1.819,1.8176,1.8172,1.8138,1.8131,1.8113,1.8095,1.8084,1.8123,1.8096,1.812,1.8151,1.8154,1.8159,1.8164,1.8176,1.8181,1.8122,1.8122,1.8122,0,1.8337,1.8328,1.8294,1.8292,1.8282,1.8241,1.8245,1.8231,1.8202,1.8195,1.818,1.8155,1.8135,1.8133,1.8143,1.8136,1.8135,1.8123,1.8161,1.8165,1.8169,1.818,1.8185,1.8125,1.8125,1.8124,1.8124,0,1.8373,1.8367,1.8374,1.8348,1.8338,1.834,1.8305,1.83,1.8277,1.8255,1.8251,1.8225,1.8206,1.8204,1.8182,1.8199,1.8191,1.8169,1.814,1.8179,1.8188,1.8193,1.8129,1.8128,1.8127,1.8127,0,0,1.845,1.8405,1.8408,1.8395,1.8363,1.8357,1.8357,1.8338,1.8334,1.8316,1.8313,1.8298,1.8277,1.8265,1.824,1.8243,1.8273,1.822,1.8219,1.8229,1.8288,1.8303,1.8309,1.8256,1.8256,1.8257,1.8289,0,1.8488,1.8484,1.8453,1.8458,1.8451,1.8413,1.8411,1.8391,1.8371,1.8361,1.8338,1.8327,1.8302,1.8294,1.8294,1.8269,1.8284,1.8266,1.8251,1.8251,1.8257,1.8314,1.833,1.8362,1.8293,1.8294,1.8294,0,1.8531,1.8516,1.852,1.8488,1.8484,1.8483,1.8464,1.8456,1.8432,1.8416,1.8403,1.8375,1.8371,1.8345,1.8338,1.8327,1.8319,1.8305,1.8305,1.8301,1.8274,1.831,1.8372,1.8376,1.83,1.8299,1.8299,0,1.8585,1.8565,1.8565,1.8555,1.8518,1.8518,1.8503,1.8478,1.8469,1.8452,1.8445,1.8427,1.8417,1.8404,1.8372,1.8357,1.8368,1.834,1.8353,1.8354,1.8356,1.8356,1.8416,1.8354,1.8354,1.8353,1.8353,0,1.863,1.8633,1.8588,1.8588,1.859,1.8555,1.8558,1.8539,1.8517,1.8511,1.8477,1.8472,1.8431,1.8421,1.8397,1.8393,1.8389,1.8375,1.8368,1.8377,1.8379,1.837,1.8367,1.8355,1.8354,1.8354,1.8354,0,1.869,1.866,1.8656,1.8622,1.8613,1.8616,1.8586,1.8583,1.8561,1.8554,1.855,1.8514,1.85,1.8468,1.8446,1.8429,1.8431,1.8419,1.8439,1.8435,1.8449,1.8448,1.8504,1.8509,1.8446,1.8446,1.8447,0,1.8719,1.8721,1.8687,1.8681,1.8667,1.8658,1.8648,1.8613,1.8605,1.8577,1.8578,1.8562,1.8547,1.8527,1.8498,1.8481,1.8467,1.8489,1.8464,1.8473,1.8466,1.8465,1.8465,1.8493,1.8494,1.8495,1.8496,0,1.8775,1.876,1.8748,1.8731,1.872,1.8705,1.8688,1.8685,1.8645,1.8637,1.8623,1.8612,1.8589,1.8573,1.8552,1.8534,1.8508,1.8504,1.8505,1.8514,1.8525,1.8517,1.8452,1.8502,1.8501,1.8501,1.8501,1.85,1.8819,1.8818,1.8794,1.8781,1.8765,1.8749,1.8745,1.8722,1.871,1.8689,1.867,1.8657,1.8632,1.86,1.8585,1.8574,1.8561,1.8564,1.8564,1.8565,1.8568,1.8528,1.857,1.857,1.8569,1.8569,1.8569,0,1.8871,1.8853,1.8843,1.8819,1.8809,1.8787,1.8766,1.8759,1.8749,1.8729,1.8715,1.8698,1.8683,1.8653,1.8634,1.8631,1.8618,1.8627,1.8626,1.8622,1.8582,1.8582,1.8637,1.8637,1.8637,1.8637,1.8637,1.8637,1.8897,1.8894,1.8877,1.8865,1.8847,1.8835,1.8825,1.881,1.8794,1.8777,1.8764,1.8745,1.872,1.8699,1.8683,1.8675,1.8669,1.8681,1.8668,1.8631,1.8625,1.8619,1.8618,1.868,1.868,1.8709,1.8709,1.8709]}]]